Hourly Data Report for January 19, 2022

BANCROFT AUTO
ONTARIO
Current Station Operator: ECCC - MSC

45°04'17.000" N
77°52'44.000" W
330.70 m
616I001
71294
WRK

Download Data

Hourly Data (January 2022)
Hourly Data Report for January 19, 2022
TIME
LST
Temp Definition
°C
Dew Point Definition
°C
Rel Hum Definition
%
Precip. Amount Definition
mm

Wind Dir Definition
10's deg

Wind Spd Definition
km/h
Visibility Definition
km
Stn Press Definition
kPa
Hmdx Definition


Wind Chill Definition


Weather Definition


00:00 -13.6 -16.9 76 0.0 14 7   97.20   -18 LegendNANA
01:00 -13.7 -16.2 82 0.6 14 6   97.00   -18 LegendNANA
02:00 -13.1 -15.0 86 2.0 17 3   96.92   -15 LegendNANA
03:00 -12.0 -13.8 87 0.7 15 6   96.77   -16 LegendNANA
04:00 -10.0 -11.7 88 0.5 16 5   96.59   -13 LegendNANA
05:00 -9.3 -10.8 89 0.7 15 4   96.43   -12 LegendNANA
06:00 -7.5 -8.9 90 0.6 17 8   96.31   -12 LegendNANA
07:00 -6.1 -6.9 94 0.0 18 7   96.23   -9 LegendNANA
08:00 -3.9 -4.5 95 0.0 20 11   96.19   -8 LegendNANA
09:00 -2.6 -3.1 96 0.2 19 11   96.19   -7 LegendNANA
10:00 -1.4 -2.0 96 0.2 19 7   96.22   -4 LegendNANA
11:00 0.2 -0.6 94 0.0 21 6   96.23     LegendNANA
12:00 1.6 -0.4 87 0.0 22 6   96.19     LegendNANA
13:00 2.2 -0.7 81 0.0 22 12   96.16     LegendNANA
14:00 1.9 -1.3 79 0.0 23 9   96.17     LegendNANA
15:00 0.6 -3.0 77 0.2 27 12   96.37     LegendNANA
16:00 -1.4 -5.7 72 0.0 27 11   96.57   -5 LegendNANA
17:00 -2.5 -7.9 66 0.0 26 12   96.71   -7 LegendNANA
18:00 -3.3 -8.1 69 0.0 27 9   96.85   -7 LegendNANA
19:00 -4.1 -9.5 66 0.0 25 8   96.95   -8 LegendNANA
20:00 -4.9 -10.2 67 0.0 26 11   97.02   -9 LegendNANA
21:00 -6.1 -11.3 67 0.0 28 12   97.16   -11 LegendNANA
22:00 -8.0 -11.9 74 0.0 31 12   97.31   -13 LegendNANA
23:00 -11.0 -15.5 69 0.0 32 11   97.53   -17 LegendNANA

Notes on Data Quality.

Legend

  • E = Estimated
  • M = Missing
  • NA = Not Available*
  • [empty] = Indicates an unobserved value
Date modified: